Temperature
16 16 16 15 15 15 15 15 15 15 15 15 15 15 15 15 15 15 15 15 15 15 15 15 16 16 16 16 16 16 16 16 16 16 16 16 16 16 16 16 16 16 16
16 16 16 16 15 15 15 15 15 15 15 15 15 15 15 15 15 15 15 15 15 15 15 15 15 15 15 15 15 16 16 16 16 16 16 16 16 16 16 16 16 16 16
16 16 16 15 15 15 15 15 15 15 15 15 15 15 15 15 15 15 15 15 15 15 15 15 15 15 15 15 15 15 15 15 15 15 15 15 16 16 16 16 16 16 16
16 16 16 15 15 15 15 15 15 15 15 15 15 14 14 14 14 14 14 14 15 15 15 15 15 14 14 14 15 15 15 15 15 15 15 15 15 15 15 15 15 15 15
16 16 15 15 15 15 15 15 15 15 15 14 14 14 14 14 14 14 14 14 14 14 14 14 14 14 14 14 14 14 14 14 14 14 15 15 15 15 15 15 15 15 15
15 15 15 15 15 15 15 15 15 15 15 14 14 14 14 14 14 14 14 14 14 14 14 14 14 14 14 14 14 14 14 14 14 14 14 14 15 15 15 15 15 15 15
15 15 15 15 15 15 15 15 15 15 14 14 14 14 14 14 14 14 14 14 14 14 14 14 14 14 14 14 14 14 14 14 14 14 14 14 14 15 15 15 15 15 15
15 15 15 15 15 15 15 15 15 14 14 14 14 14 14 14 14 14 14 14 14 14 14 14 14 14 14 14 14 14 14 13 14 14 14 14 14 14 14 14 14 14 14
15 15 15 15 15 15 15 15 14 14 14 14 14 14 14 14 14 13 13 13 13 14 14 14 14 14 14 14 14 14 14 14 13 14 14 14 14 14 14 14 14 14 14
15 15 15 15 15 15 15 14 14 14 14 14 14 14 14 14 14 13 13 13 13 13 13 13 13 13 13 13 13 14 14 14 13 13 13 13 13 13 14 14 14 14 14
15 15 15 15 15 15 15 14 14 14 14 14 14 14 14 14 14 14 13 13 13 13 13 13 13 13 13 13 13 13 13 13 13 13 13 13 13 13 13 13 13 13 13
15 15 15 15 15 15 15 14 14 14 14 14 14 14 14 14 14 14 13 13 13 13 13 13 13 13 13 13 13 13 13 13 13 13 13 13 13 13 13 13 13 13 13
15 15 15 15 15 15 15 14 14 14 14 14 14 14 14 14 14 14 14 13 13 13 13 13 13 13 13 13 13 13 13 13 13 13 13 13 13 13 13 13 12 12 12
15 15 15 15 15 15 14 14 14 14 14 14 14 14 14 14 14 14 14 13 13 13 13 13 13 13 13 13 13 12 12 12 12 12 12 12 12 12 12 12 12 12 12
15 15 15 15 15 15 14 14 14 14 14 14 14 14 14 14 14 14 13 13 13 13 13 13 13 13 13 13 12 12 12 12 12 12 12 12 12 12 12 12 12 12 12
15 15 15 15 15 15 14 14 14 14 14 14 14 14 14 14 14 14 13 13 13 13 13 13 12 12 12 12 12 12 12 12 12 12 12 12 12 12 12 12 12 12 12
15 15 15 15 15 15 14 14 14 14 14 14 14 14 14 14 14 14 13 13 13 13 13 13 12 12 12 12 12 12 12 12 12 11 11 11 11 11 11 11 11 11 11
15 15 15 15 15 15 14 14 14 14 14 14 14 14 14 14 14 14 14 13 13 13 13 13 13 12 12 12 12 12 12 12 11 11 11 11 11 11 11 11 11 11 11
15 15 15 15 15 14 14 14 14 14 14 14 14 14 14 14 14 14 13 13 13 13 13 13 13 12 12 12 12 12 12 11 11 11 11 11 11 11 11 11 11 11 10
15 15 15 15 15 14 14 14 14 14 14 14 14 14 14 14 13 13 13 13 13 13 13 12 12 12 12 12 12 12 12 11 11 11 11 11 11 10 10 10 10 10 10
15 15 15 15 15 15 14 14 14 14 14 14 14 14 13 13 13 13 13 13 13 13 12 12 12 12 12 11 11 11 11 11 11 11 11 11 10 10 10 10 10 10 9
15 15 15 15 15 14 14 14 14 14 14 14 14 13 13 13 13 13 13 13 12 12 12 12 12 11 11 11 11 11 11 11 10 10 10 10 10 10 9 9 9 9 9
15 15 15 15 14 14 14 14 14 14 14 13 13 13 13 13 13 13 12 12 12 12 12 11 11 11 11 10 10 10 10 10 10 10 10 10 9 9 9 9 8 8 8
15 15 14 14 14 14 14 14 14 14 13 13 13 13 13 13 12 12 12 12 12 11 11 11 11 10 10 10 10 10 9 9 9 9 9 9 9 9 8 8 8 8 7
14 14 14 14 14 14 14 14 14 13 13 13 13 13 12 12 12 12 12 12 11 11 11 10 10 10 10 10 10 9 9 9 9 9 8 8 8 8 8 7 7 7 7
14 14 14 14 14 14 14 13 13 13 13 13 13 12 12 12 12 11 11 11 11 11 10 10 10 10 10 9 9 9 8 8 8 8 8 7 7 7 6 7 7 6 6
Wind_Speed
3 4 4 5 6 6 6 6 7 7 7 8 9 9 8 9 9 10 10 12 12 12 11 10 10 9 9 9 9 10 10 10 10 10 9 9 9 8 7 6 5 4 3
3 4 4 4 5 6 7 7 6 6 6 7 7 8 8 9 10 10 10 11 12 13 13 12 11 11 11 10 10 10 11 10 10 10 10 10 10 9 8 6 5 5 4
4 4 4 3 4 6 8 8 7 7 6 6 7 7 7 8 9 10 10 11 11 12 14 13 12 12 11 11 11 11 11 11 10 10 10 10 10 10 9 8 6 5 5
6 6 4 3 5 6 6 5 4 5 6 5 5 5 6 7 8 9 10 11 11 11 12 14 13 12 12 12 11 11 11 11 11 11 11 11 11 11 10 9 8 7 7
6 6 4 4 6 6 4 4 4 4 5 5 5 5 5 6 6 8 9 10 11 11 11 12 13 13 12 12 12 11 11 12 12 11 11 12 11 11 10 9 9 9 8
6 7 5 5 5 4 4 4 5 4 4 4 5 6 5 5 6 7 7 8 9 10 11 11 11 11 12 12 12 12 12 12 12 12 12 12 12 11 10 9 9 9 9
6 6 5 5 4 4 4 4 4 5 3 2 4 4 4 5 5 5 6 6 7 9 10 10 10 10 10 12 13 13 13 13 12 12 12 12 12 12 11 9 9 9 10
4 4 5 4 4 4 4 4 3 3 2 2 3 3 3 4 4 5 4 5 6 7 8 9 9 9 9 10 11 13 13 13 13 13 12 12 13 13 12 10 9 9 9
4 5 5 5 4 3 3 2 3 3 2 2 2 3 2 1 2 3 4 4 5 5 5 7 8 9 8 8 9 10 12 12 12 12 12 12 13 14 13 12 11 10 9
4 5 5 5 4 3 3 2 2 2 3 1 1 2 2 3 2 1 3 4 4 4 4 5 6 7 8 8 8 10 10 11 11 11 11 12 12 13 14 13 13 12 11
4 4 4 4 4 3 2 2 2 2 2 2 2 1 2 2 2 2 1 3 3 3 3 4 5 6 7 7 7 8 9 9 9 10 11 11 11 12 12 12 12 11 11
2 3 4 4 3 3 2 2 2 3 2 2 2 2 2 2 1 2 1 1 2 3 3 3 4 5 6 6 6 7 8 8 8 9 9 10 11 11 11 11 11 10 10
1 0 2 3 2 2 3 4 3 2 2 2 2 1 1 1 2 3 2 1 1 2 3 3 3 4 5 5 6 6 6 7 7 8 8 9 9 10 10 10 10 10 10
1 1 2 3 3 3 4 4 3 2 2 2 2 2 1 1 2 2 3 3 1 2 3 3 3 4 5 5 5 6 5 6 6 6 6 7 8 8 9 9 9 9 10
2 2 3 3 3 3 3 4 2 2 2 2 1 2 1 1 1 1 2 3 3 1 2 3 3 4 5 5 6 5 5 5 5 5 5 6 6 7 8 8 8 8 9
2 3 3 3 3 2 3 3 2 2 3 1 1 2 2 1 1 1 2 2 2 3 1 2 2 3 4 4 6 5 5 5 6 5 5 5 5 6 6 7 7 7 8
3 3 3 4 3 2 2 3 2 2 2 2 2 2 1 1 1 1 2 2 2 2 2 2 2 2 3 4 6 6 6 6 6 6 5 5 5 5 6 6 6 6 7
3 3 4 4 3 3 3 3 2 2 2 1 1 2 1 1 2 1 2 2 1 2 2 1 2 2 2 3 4 4 5 6 6 6 6 6 5 6 6 6 5 5 6
3 3 4 4 3 3 3 3 3 2 2 2 1 1 1 2 1 1 1 1 1 1 2 2 1 1 2 2 3 3 4 5 5 6 7 7 7 7 7 7 6 6 6
4 3 3 3 3 3 3 3 3 2 2 1 1 1 1 2 2 2 2 1 2 2 2 2 1 2 2 2 2 2 3 3 3 6 6 7 7 7 8 8 7 7 7
3 3 3 3 3 3 3 4 3 3 2 1 1 0 1 2 2 3 2 2 3 2 2 2 1 1 2 2 2 2 2 3 2 3 4 4 5 6 7 7 8 8 7
3 3 3 3 2 2 4 6 5 4 3 2 1 0 1 1 2 3 4 4 4 3 3 2 1 0 2 2 1 1 1 2 3 3 2 3 4 3 5 6 8 8 8
3 3 3 3 2 2 4 5 6 5 3 2 1 1 1 2 2 3 4 4 3 3 4 4 2 1 1 2 1 1 1 1 2 3 2 2 3 3 5 6 8 8 9
4 3 3 3 3 2 4 5 6 5 3 2 1 1 1 0 2 3 4 4 3 2 2 2 2 0 0 0 0 1 1 1 2 2 3 2 3 3 4 5 8 9 10
3 3 3 3 3 2 3 5 6 4 3 1 1 1 2 1 2 4 4 3 2 2 4 4 4 4 5 5 4 3 2 2 2 2 2 1 2 3 3 3 7 10 10
3 3 3 2 3 2 3 5 6 3 3 2 1 1 1 2 2 4 3 3 2 0 2 3 4 5 6 5 5 3 1 1 1 2 2 2 2 2 3 2 4 7 8
Wind_Direction
74 68 62 60 62 69 74 73 72 69 66 60 58 58 56 52 46 42 37 42 45 43 44 47 51 54 53 52 49 48 49 47 47 43 39 39 37 33 31 36 32 30 30
96 88 76 70 66 72 80 80 78 74 68 66 58 55 53 52 47 43 39 38 41 43 43 48 53 55 53 52 51 51 48 47 45 42 40 40 36 29 30 38 44 40 39
105 101 89 80 76 84 85 81 75 72 69 65 56 51 51 50 47 42 40 37 35 38 41 47 53 54 54 53 51 50 46 45 44 43 42 41 36 30 33 37 42 46 49
112 103 93 85 90 88 87 83 73 74 66 62 55 44 44 45 43 43 44 40 37 34 35 43 50 51 52 51 49 48 44 44 46 46 46 41 37 34 36 37 43 53 60
111 106 98 94 97 90 82 88 73 83 82 72 67 52 40 41 38 43 41 39 38 37 36 37 41 45 47 48 48 47 47 48 48 49 47 43 40 39 40 45 50 55 59
107 106 99 95 98 92 83 87 87 76 83 81 75 58 41 39 41 38 33 35 37 37 36 36 35 34 40 43 45 45 47 47 47 48 47 44 42 41 40 45 52 56 58
104 105 102 96 97 99 107 109 104 88 71 69 73 47 27 34 40 33 29 32 30 30 35 35 34 34 34 37 39 42 44 46 46 45 44 42 42 40 40 48 56 60 60
98 112 109 107 104 105 99 100 106 101 68 48 85 79 27 6 9 23 22 30 24 27 31 31 35 35 34 34 33 39 41 42 43 41 40 41 40 39 44 49 57 63 62
88 103 114 112 109 115 122 119 121 120 113 45 64 120 122 211 329 351 10 19 16 22 21 26 31 33 34 34 32 33 37 37 38 37 39 41 41 40 45 50 57 58 57
68 92 108 111 106 108 118 133 128 120 126 113 56 58 108 148 136 353 343 356 10 18 11 19 19 23 28 30 29 30 33 34 36 36 40 42 43 42 45 51 56 56 53
57 76 97 104 104 105 114 111 107 108 121 136 135 116 84 69 92 129 328 333 350 351 1 6 10 10 14 19 20 25 29 32 35 37 39 41 41 41 42 46 50 50 49
36 55 86 96 102 100 105 109 109 107 106 108 114 124 142 141 154 138 167 285 326 322 339 2 9 1 3 7 9 16 23 26 31 35 37 37 38 37 37 39 40 42 43
21 359 99 101 100 103 104 100 95 87 95 102 114 122 136 153 152 146 142 161 344 321 336 344 351 356 356 2 1 12 16 19 23 29 33 33 32 32 32 33 31 33 34
198 156 121 114 107 107 105 99 94 92 91 93 95 104 103 111 144 156 156 146 88 355 353 326 327 348 347 354 358 8 9 13 16 18 25 28 28 29 28 25 24 24 25
166 132 122 118 108 104 106 105 96 97 103 95 92 97 95 69 110 135 143 149 146 127 322 312 321 333 341 347 357 5 1 11 14 13 17 23 26 27 25 20 19 18 17
152 136 128 124 117 111 107 106 100 94 98 79 94 88 71 57 76 95 125 127 137 153 193 284 283 304 339 355 4 11 5 7 10 11 12 17 20 21 20 17 15 13 11
156 154 152 146 140 129 118 115 113 109 101 73 71 91 62 65 73 79 100 104 108 129 164 286 299 317 348 358 1 10 12 13 6 10 13 11 14 15 13 10 8 6 6
168 166 156 150 152 145 138 138 139 129 126 114 99 99 62 84 74 74 96 106 118 139 156 212 322 334 336 344 352 3 11 12 11 12 18 18 18 17 14 8 4 2 2
163 157 155 159 166 165 155 154 155 154 157 165 158 148 157 117 105 103 107 108 105 103 122 149 316 328 320 344 354 355 5 6 13 15 22 25 27 29 26 21 19 19 18
165 167 166 165 166 166 162 158 155 154 150 135 129 151 159 157 180 161 138 137 120 101 98 103 38 346 331 332 1 350 344 351 359 9 12 15 24 27 22 20 18 17 17
166 157 145 143 149 157 169 163 159 148 141 121 81 87 149 148 163 158 148 153 136 120 110 98 54 16 350 347 331 314 323 323 341 6 359 6 14 17 12 12 12 13 15
148 140 147 151 154 174 168 166 156 147 149 146 136 25 49 78 97 109 113 122 135 140 148 137 141 233 289 277 291 323 339 355 329 349 356 339 9 357 353 3 6 13 15
151 148 161 157 172 194 171 163 160 145 142 147 147 106 71 73 88 92 87 86 88 105 139 150 150 219 251 259 260 330 318 280 273 324 353 321 346 338 342 357 9 15 13
156 164 167 168 173 195 173 162 154 139 133 141 148 154 140 80 101 117 103 84 71 58 88 117 143 183 38 33 195 250 240 288 304 352 15 321 326 324 337 350 16 21 18
162 167 161 162 168 200 173 160 145 133 132 130 118 137 152 153 133 124 115 107 69 25 51 75 78 63 49 46 56 56 33 28 331 327 9 343 319 321 324 336 3 12 15
166 154 143 149 163 191 181 173 155 143 143 135 84 69 136 153 141 135 135 136 129 30 56 55 45 38 37 36 47 55 67 40 324 318 342 347 328 344 325 327 348 359 6
Height
1551 1551 1551 1551 1550 1550 1550 1550 1550 1550 1550 1550 1550 1550 1550 1550 1550 1549 1548 1548 1547 1546 1546 1545 1545 1544 1544 1543 1543 1542 1542 1541 1540 1540 1539 1539 1538 1538 1537 1537 1537 1537 1537
1553 1553 1552 1552 1552 1552 1552 1552 1552 1551 1551 1551 1551 1552 1551 1551 1551 1550 1549 1549 1548 1547 1547 1546 1545 1544 1544 1544 1543 1542 1541 1541 1540 1539 1539 1538 1537 1537 1536 1536 1536 1536 1536
1555 1554 1554 1554 1554 1554 1554 1553 1553 1553 1553 1553 1553 1553 1552 1552 1552 1551 1551 1550 1549 1548 1548 1547 1546 1545 1545 1544 1543 1543 1542 1541 1540 1539 1538 1537 1536 1535 1535 1534 1534 1534 1534
1556 1556 1556 1555 1555 1555 1555 1555 1555 1554 1554 1554 1554 1554 1554 1553 1553 1553 1552 1551 1550 1549 1548 1548 1547 1546 1546 1545 1544 1543 1542 1541 1539 1539 1538 1537 1535 1534 1533 1533 1533 1533 1534
1557 1557 1557 1557 1556 1556 1556 1556 1556 1556 1555 1555 1555 1555 1555 1554 1554 1554 1553 1552 1552 1551 1550 1549 1548 1547 1547 1546 1545 1544 1543 1541 1540 1539 1538 1537 1535 1534 1532 1532 1532 1532 1533
1558 1558 1558 1558 1558 1557 1557 1557 1557 1557 1557 1557 1556 1556 1556 1556 1556 1555 1555 1554 1553 1552 1551 1550 1549 1548 1548 1547 1546 1545 1544 1543 1541 1540 1539 1537 1536 1533 1531 1530 1530 1531 1532
1559 1559 1559 1559 1559 1559 1558 1558 1558 1558 1558 1558 1558 1558 1558 1558 1557 1557 1556 1555 1555 1554 1552 1551 1550 1549 1548 1548 1547 1546 1545 1544 1543 1541 1540 1538 1536 1533 1529 1528 1528 1529 1530
1560 1560 1560 1560 1560 1560 1560 1559 1559 1559 1559 1560 1560 1559 1559 1561 1559 1559 1558 1557 1556 1555 1554 1552 1552 1551 1550 1549 1548 1547 1546 1545 1544 1542 1541 1539 1536 1532 1528 1527 1527 1528 1530
1561 1561 1561 1561 1561 1561 1561 1560 1561 1560 1560 1561 1561 1561 1560 1560 1560 1560 1559 1558 1557 1556 1555 1554 1553 1552 1551 1550 1549 1548 1547 1546 1545 1543 1542 1540 1537 1534 1530 1528 1528 1529 1531
1561 1562 1562 1562 1562 1562 1562 1562 1562 1562 1562 1561 1561 1561 1561 1561 1561 1560 1560 1559 1558 1557 1556 1555 1554 1553 1552 1551 1550 1549 1548 1547 1546 1544 1543 1541 1539 1536 1534 1532 1531 1532 1532
1562 1562 1562 1562 1562 1562 1562 1562 1562 1562 1562 1562 1562 1561 1561 1561 1561 1560 1560 1560 1559 1558 1557 1556 1555 1554 1553 1552 1551 1550 1549 1547 1546 1545 1544 1542 1540 1538 1536 1535 1534 1534 1534
1562 1562 1562 1562 1563 1562 1562 1562 1563 1562 1562 1562 1562 1562 1561 1561 1561 1560 1560 1559 1559 1559 1558 1557 1556 1555 1554 1553 1552 1551 1549 1548 1547 1546 1544 1543 1541 1539 1538 1536 1536 1535 1535
1563 1563 1563 1563 1563 1563 1563 1563 1563 1563 1562 1562 1562 1562 1562 1561 1561 1561 1560 1559 1559 1559 1558 1558 1557 1556 1555 1554 1553 1551 1550 1549 1547 1546 1545 1543 1542 1541 1539 1538 1537 1536 1535
1563 1563 1563 1563 1563 1563 1563 1563 1563 1563 1563 1562 1562 1562 1562 1561 1561 1561 1560 1560 1559 1559 1558 1558 1557 1557 1556 1555 1553 1552 1551 1549 1548 1547 1545 1544 1542 1541 1540 1538 1537 1536 1535
1563 1563 1564 1563 1563 1563 1563 1563 1563 1563 1563 1562 1562 1562 1562 1561 1561 1560 1560 1560 1560 1559 1559 1558 1558 1557 1556 1555 1554 1552 1551 1550 1548 1547 1545 1544 1543 1541 1540 1539 1537 1536 1535
1563 1563 1563 1563 1563 1563 1563 1563 1563 1563 1563 1563 1562 1562 1561 1561 1561 1560 1560 1559 1559 1559 1558 1558 1557 1557 1556 1555 1554 1553 1551 1550 1548 1547 1545 1544 1543 1541 1540 1538 1537 1536 1534
1562 1563 1563 1563 1563 1563 1563 1563 1563 1563 1563 1562 1562 1562 1561 1561 1560 1560 1559 1559 1559 1559 1558 1558 1557 1556 1555 1554 1553 1552 1551 1549 1548 1547 1545 1544 1542 1540 1539 1537 1536 1535 1533
1561 1562 1562 1562 1563 1563 1563 1563 1563 1563 1562 1562 1562 1561 1561 1560 1560 1560 1559 1559 1558 1558 1558 1557 1556 1556 1555 1554 1553 1552 1550 1549 1547 1546 1545 1543 1541 1540 1538 1537 1535 1534 1532
1560 1561 1561 1562 1562 1562 1563 1563 1562 1562 1562 1561 1561 1561 1560 1560 1559 1559 1559 1558 1558 1557 1557 1556 1555 1555 1554 1553 1552 1551 1549 1548 1546 1545 1544 1542 1540 1539 1537 1535 1534 1532 1531
1559 1560 1560 1561 1561 1562 1562 1562 1562 1561 1561 1561 1560 1560 1560 1559 1559 1558 1558 1557 1557 1556 1556 1555 1554 1553 1553 1552 1550 1549 1548 1547 1545 1544 1542 1541 1539 1537 1536 1534 1532 1531 1529
1558 1558 1559 1560 1560 1560 1561 1561 1561 1560 1560 1560 1559 1559 1558 1558 1558 1557 1557 1556 1556 1555 1555 1554 1553 1552 1551 1550 1549 1547 1546 1545 1544 1542 1541 1539 1538 1536 1534 1532 1530 1528 1526
1556 1557 1558 1558 1559 1559 1559 1559 1559 1559 1559 1559 1558 1558 1557 1557 1557 1556 1556 1555 1555 1554 1554 1553 1552 1551 1550 1549 1548 1546 1545 1543 1541 1541 1539 1537 1536 1534 1532 1530 1528 1526 1524
1554 1555 1556 1556 1557 1557 1557 1557 1557 1557 1557 1557 1557 1556 1556 1556 1555 1555 1554 1554 1553 1553 1553 1552 1551 1550 1549 1547 1546 1545 1543 1542 1540 1538 1537 1535 1534 1532 1530 1528 1526 1524 1521
1552 1553 1553 1554 1554 1555 1555 1555 1555 1555 1555 1555 1555 1555 1555 1554 1554 1553 1553 1552 1552 1551 1551 1550 1549 1548 1547 1546 1545 1543 1542 1540 1538 1537 1535 1533 1531 1529 1527 1525 1523 1521 1519
1549 1550 1551 1552 1552 1553 1553 1553 1553 1553 1553 1553 1553 1553 1553 1553 1552 1552 1551 1550 1550 1549 1549 1548 1548 1547 1546 1544 1543 1541 1539 1537 1536 1534 1532 1530 1528 1526 1524 1522 1520 1518 1516
1547 1548 1549 1549 1550 1550 1551 1551 1551 1551 1551 1551 1551 1551 1551 1551 1550 1550 1550 1549 1548 1548 1547 1547 1546 1545 1543 1542 1540 1539 1537 1535 1533 1531 1530 1528 1526 1523 1521 1520 1518 1516 1513